Regional Weather Roundup
Issued by NWS

Home | Current Version | Previous Version | Text Only | Print | Product List | Glossary Off
Versions: 1 2 3 4 5 6 7 8 9 10 11 12 13 14 15 16 17 18 19 20 21 22 23 24 25 26 27 28 29 30 31 32 33 34 35 36 37 38 39 40 41 42 43 44 45 46 47 48 49 50

000
ASUS45 KTFX 190610
RWRMT
MONTANA REGIONAL WEATHER ROUNDUP
NATIONAL WEATHER SERVICE GREAT FALLS MT
1200 AM MDT THU OCT 19 2017

NOTE: "FAIR" INDICATES FEW OR NO CLOUDS BELOW 12000 FEET WITH NO
SIGNIFICANT WEATHER AND/OR OBSTRUCTIONS TO VISIBILITY.

MTZ001>007-043-190700-
WEST OF THE DIVIDE

CITY           SKY/WX    TMP DP  RH WIND       PRES   REMARKS
KALISPELL      CLOUDY    54  40  59 S8        29.75F
MISSOULA       PTCLDY    43  37  79 CALM      29.82F
BUTTE          CLOUDY    43  29  57 SE5       29.94S
MULLAN PASS    CLOUDY    44  30  57 S10G22    29.82F
ANACONDA         N/A     55  25  30 S12G18    29.89F
DEER LODGE       N/A     52  28  40 S6        29.89S
EUREKA           N/A     55  41  58 MISG      29.69F
HAMILTON         N/A     55  25  30 S8        29.83F
LIBBY            N/A     48  46  93 CALM      29.70F
PLAINS           N/A     45  38  76 CALM      29.79F
$$

MTZ008-052>055-190700-
SOUTHWEST MONTANA

CITY           SKY/WX    TMP DP  RH WIND       PRES   REMARKS
BOZEMAN        CLOUDY    45  31  58 SE6       29.90F
DILLON         CLOUDY    48  26  42 SW10      29.95S
W YELLOWSTONE  CLOUDY    30  23  74 CALM      30.12S
ENNIS          CLOUDY    52  23  32 S9G21     30.02F
THREE FORKS      N/A     61  26  26 SW14      29.88F
TWIN BRIDGES     N/A     49  24  37 CALM      29.94F
$$

MTZ009-010-012-014-046-048-049-054-190700-
EAST SLOPES AND CENTRAL MONTANA

CITY           SKY/WX    TMP DP  RH WIND       PRES   REMARKS
CUT BANK       CLOUDY    55  35  47 SW20G28   29.66R
GREAT FALLS    CLOUDY    60  29  30 SW23G32   29.71S
MALMSTROM AFB  CLOUDY    58  30  34 SW18G24   29.71F
HELENA         CLOUDY    47  34  60 CALM      29.81F
BOWMANS CRNR     N/A     54  29  38 S23       29.73F
CHOTEAU          N/A     61  25  25 SW24G36   29.68F
FAIRFIELD        N/A     55  30  38 S16       29.70F
POWER            N/A     58  28  31 SW28G37   29.68F
RAYNESFORD       N/A     64  27  24 SW18G31   29.74F
ULM            MOCLDY    63  27  25 SW17      29.74F
$$

MTZ011-013-016-021-045-047-050-051-190700-
NORTH CENTRAL MONTANA

CITY           SKY/WX    TMP DP  RH WIND       PRES   REMARKS
HAVRE          CLOUDY    58  36  43 SW15      29.64F
LEWISTOWN      CLOUDY    60  28  29 SW23G29   29.78F
N BAR RANCH      N/A     57  27  30 SW9G20    29.84F
CHINOOK          N/A     54  37  54 CALM      29.65F
DENTON           N/A     58  30  35 SW12      29.71F
GEYSER           N/A     62  28  27 W15G23    29.74F
GRASS RANGE      N/A     52  31  45 S10       29.75F
JUDITH GAP     CLOUDY    57  26  30 SW15      29.84F
WINIFRED         N/A     56  31  37 MISG      29.73F
$$

MTZ017>020-022>027-061-062-190700-
NORTHEAST MONTANA

CITY           SKY/WX    TMP DP  RH WIND       PRES   REMARKS
GLASGOW        CLOUDY    46  33  60 SE14      29.72F
JORDAN           N/A     45  30  55 W5        29.76F
SIDNEY         PTCLDY    38  27  64 S6        29.81F
WOLF POINT     CLOUDY    40  24  53 NE6       29.76F
MALTA          CLEAR     50  32  50 W7        29.69F
PLENTYWOOD       N/A     41  21  45 SE7       29.76F
POPLAR           N/A     43  25  49 N3        29.77F
SCOBEY           N/A     46  21  37 SE8       29.73F
$$

MTZ028>42-056>058-190700-
SOUTHCENTRAL AND SOUTHEAST MONTANA

CITY           SKY/WX    TMP DP  RH WIND       PRES   REMARKS
BAKER          CLOUDY    39  29  67 E6        29.85F
BILLINGS       PTCLDY    58  29  33 SW13      29.84F
LIVINGSTON     CLOUDY    61  26  26 SW30G40   29.86F
MILES CITY     CLOUDY    48  32  53 SE14      29.81F
BIG TIMBER     CLEAR     59  27  29 W13       29.89F
EKALAKA          N/A     60  22  23 S5        29.86F
FORSYTH          N/A     48  30  49 CALM      29.80F
HARLOWTON        N/A     51  29  41 MISG      29.84F
LAUREL           N/A     54  28  37 SW10      29.86S
$$

REGIONAL REPORTS...DAKOTAS

CITY           SKY/WX    TMP DP  RH WIND       PRES   REMARKS
WILLISTON      CLOUDY    37  28  70 CALM      29.82F
MINOT          CLOUDY    41  26  55 S6        29.85F
DICKINSON      CLOUDY    45  26  47 S12       29.84F
BEACH            N/A     45  27  49 S14       29.86F
CROSBY           N/A     34  23  64 S8        29.79F WCI  27
TIOGA            N/A     36  23  60 S6        29.84F WCI  31
WATFORD CITY     N/A     36  25  64 CALM      29.83F
BISMARCK       CLOUDY    37  26  64 NE5       29.92F
GRAND FORKS    CLEAR     46  25  43 SW9       29.89R
FARGO          PTCLDY    39  27  62 SW7       29.95S
BUFFALO SD       N/A     46  25  43 S6        29.82F
RAPID CITY     CLOUDY    48  30  49 SE6       29.94F
$$

REGIONAL REPORTS...WYOMING/IDAHO/WASHINGTON

CITY           SKY/WX    TMP DP  RH WIND       PRES   REMARKS
GILLETTE       CLOUDY    54  17  23 S13       29.92F
SHERIDAN       CLOUDY    46  28  49 VRB3      29.90S
BUFFALO WY     CLOUDY    57  10  15 W6        29.96R
CODY           CLOUDY    61  20  20 W12G21    29.99S
YELLOWSTONE LA   N/A     29  24  82 CALM      30.18S
IDAHO FALLS    CLOUDY    36  30  79 N5        30.06F
SALMON         CLOUDY    42  30  62 CALM      29.94F
BOISE          CLEAR     57  29  34 SE12      29.89S
SPOKANE        CLOUDY    55  44  66 S16G25    29.67F
$$

REGIONAL REPORTS...ALBERTA

CITY           SKY/WX    TMP DP  RH WIND       PRES   REMARKS
EDMONTON       CLEAR     39  25  56 S8        29.30F
CALGARY        MOCLDY    37  27  65 VRB2      29.36S
LETHBRIDGE     CLEAR     59  36  41 SW30G51   29.49F
MEDICINE HAT   MOCLDY    59  39  47 S23G29    29.50F
$$

REGIONAL REPORTS...SASKATCHEWAN

CITY           SKY/WX    TMP DP  RH WIND       PRES   REMARKS
SWIFT CURRENT  MOCLDY    48  28  46 S20G25    29.56F
REGINA         PTCLDY    36  18  48 SE10      29.70F WCI  28
SASKATOON      CLOUDY    37  19  48 SE8       29.63F WCI  31
$$



USA.gov is the U.S. government's official web portal to all federal, state and local government web resources and services.